Temp
25 25 25 25 25 26 25 25 25 25 25 25 25 25 25 25 25 25 25 25 25 25 25 25 25 25 25 25 25 25 25 25 25 25 25 25 25 25 25 25 25 25
25 25 25 25 25 26 26 26 26 26 26 25 25 25 25 25 25 25 25 25 25 25 25 25 25 25 25 25 25 25 25 25 25 25 25 25 25 25 25 25 25 25
25 25 25 25 26 26 26 26 26 26 26 25 25 25 25 25 25 25 25 25 25 25 25 25 25 25 25 25 25 25 25 25 25 25 25 25 25 25 25 25 25 25
25 25 25 25 26 26 26 26 26 26 26 25 25 25 25 25 25 25 25 25 25 25 25 25 25 25 25 25 25 25 25 25 25 25 25 25 25 25 25 25 25 25
25 25 25 25 25 25 26 26 26 25 25 25 25 25 25 25 25 25 25 25 25 25 25 25 25 25 25 25 25 25 25 24 25 25 25 25 25 25 25 25 25 25
25 25 25 25 25 25 25 26 25 25 25 25 25 25 25 25 25 25 25 25 26 26 26 26 26 25 25 25 24 24 25 25 25 25 25 25 25 25 25 25 25 25
25 25 25 25 25 25 25 25 25 25 25 25 25 25 25 25 25 25 25 25 25 25 25 25 25 25 24 24 23 23 24 24 25 25 25 25 25 25 25 25 25 25
25 25 25 25 25 25 25 25 25 25 25 25 25 25 25 26 25 25 25 24 24 24 24 24 24 24 24 24 24 24 23 24 24 25 25 25 25 25 25 25 25 25
24 25 25 25 25 25 25 25 25 25 25 25 25 25 25 26 25 25 25 24 25 25 25 25 25 25 25 25 24 24 24 24 24 24 25 25 25 25 25 25 25 25
24 24 24 24 25 25 25 25 25 25 25 25 25 25 25 25 25 25 25 25 25 25 25 25 25 25 25 24 24 24 24 24 24 24 24 25 25 25 25 25 25 25
24 24 24 24 24 25 25 25 25 25 25 25 25 26 25 25 25 26 26 25 25 25 25 25 25 25 24 24 24 24 24 25 24 24 24 24 24 25 25 25 25 25
24 24 24 24 24 24 25 25 25 25 25 25 25 26 26 25 26 26 26 26 26 26 25 25 25 25 24 24 24 24 24 24 24 24 24 25 24 24 25 25 25 25
24 24 24 24 24 24 25 25 25 25 25 25 25 26 26 25 26 26 26 26 26 26 26 26 25 25 24 24 24 24 24 24 24 24 25 25 25 24 25 25 25 25
24 24 24 24 24 24 25 25 25 25 25 25 25 26 26 26 26 26 26 26 26 26 26 26 25 25 25 25 25 25 24 24 24 24 25 25 25 25 25 25 25 25
24 24 24 24 24 24 25 25 25 25 25 25 26 26 26 26 26 26 26 26 26 26 26 26 25 25 25 25 25 25 25 24 24 24 25 25 24 25 25 24 24 24
24 24 24 24 25 25 25 25 26 26 26 26 26 26 26 26 26 26 26 26 26 26 26 26 25 25 25 25 25 25 25 25 24 24 24 24 24 25 24 24 24 24
24 24 25 25 25 25 25 26 26 26 26 26 26 26 26 26 26 26 26 26 26 26 26 26 26 26 25 25 25 25 25 25 24 24 24 24 24 24 24 24 23 23
24 24 25 25 25 25 26 26 26 26 26 26 26 26 26 26 26 26 26 26 26 26 26 26 26 25 25 25 25 25 24 24 24 24 24 24 24 24 24 24 23 23
24 25 25 25 25 25 26 26 26 26 26 26 26 26 26 26 26 26 26 26 26 26 25 25 25 24 24 24 24 24 24 24 24 24 24 23 23 23 23 23 23 23
25 25 25 25 25 25 26 26 26 26 26 26 26 26 26 26 25 25 25 25 25 24 24 24 23 23 24 24 23 23 23 23 23 23 23 22 22 21 21 21 22 22
25 25 25 25 25 25 26 26 26 26 26 25 25 25 24 24 23 23 23 22 22 22 22 22 22 22 22 22 22 22 23 23 23 22 21 21 20 20 20 20 21 21
25 25 25 25 25 25 26 26 25 24 24 23 23 23 22 22 22 21 21 21 21 21 21 21 20 21 21 21 22 22 22 23 22 21 20 20 20 20 20 21 21 21
24 24 25 25 25 25 25 24 23 23 22 22 22 22 21 22 21 20 20 20 20 19 19 19 19 19 20 21 21 21 22 22 22 21 21 20 20 20 20 20 20 20
21 22 23 23 24 24 23 22 22 22 22 22 22 22 21 21 20 19 19 19 18 18 18 18 18 18 19 20 21 21 21 21 21 21 20 20 19 19 19 19 19 19
21 21 21 21 21 21 21 21 20 21 22 22 22 21 20 19 18 18 17 17 17 17 17 18 18 18 18 19 20 20 20 19 19 19 19 19 18 18 17 17 18 18
21 21 21 20 20 20 20 19 19 20 21 21 20 19 18 18 18 18 17 16 16 17 17 17 17 17 16 17 18 18 18 18 17 17 17 17 16 16 16 16 17 17
Height
821 822 823 824 825 826 827 828 829 830 831 832 833 834 835 836 837 838 838 839 839 840 840 841 841 842 842 842 843 843 843 843 843 843 843 843 843 843 842 842 841 841
820 821 822 823 824 825 826 827 828 829 830 831 832 833 834 835 836 837 837 838 838 839 839 840 841 841 841 842 842 842 842 842 842 843 843 842 842 842 841 841 841 840
818 819 820 821 822 823 824 826 827 828 829 831 831 832 833 834 835 836 837 837 838 838 839 839 840 840 841 841 841 841 841 842 842 842 842 841 841 841 840 840 840 840
817 818 819 820 821 822 823 825 826 827 828 829 830 831 832 833 834 835 836 836 837 838 838 839 839 840 840 840 841 841 841 841 841 841 841 841 840 840 840 840 840 839
815 817 818 819 820 821 823 823 824 826 827 828 829 830 831 832 833 834 834 835 836 837 837 838 838 839 839 840 840 840 840 840 840 840 840 840 840 840 839 839 839 839
813 815 816 818 819 820 821 822 823 824 825 827 827 829 830 831 832 832 833 834 835 835 836 836 837 837 838 839 839 839 839 839 839 839 839 839 839 838 838 838 838 837
811 813 814 816 817 819 820 820 822 823 824 826 826 827 829 829 830 831 832 833 833 833 834 834 834 834 836 837 838 838 838 838 838 838 838 838 837 837 837 836 836 836
808 810 812 814 815 817 818 819 820 821 823 824 825 826 827 828 829 829 829 830 830 830 831 831 831 832 833 834 834 835 835 836 836 836 836 836 836 836 835 835 835 835
806 808 809 811 813 814 816 817 819 820 821 823 823 824 826 826 826 826 826 827 828 828 828 828 829 830 831 832 832 833 833 833 834 835 835 835 835 835 835 834 834 833
803 805 807 809 810 812 813 815 817 818 820 821 821 822 824 823 823 823 825 826 827 828 827 826 827 828 829 830 831 832 832 832 832 832 833 833 833 834 833 833 832 832
800 802 804 806 808 810 811 813 815 817 818 819 819 821 821 821 820 822 823 824 825 825 825 825 825 827 828 828 829 830 830 830 830 831 831 832 832 832 832 832 831 830
798 800 801 803 805 807 809 812 813 815 816 817 818 819 819 819 819 820 821 821 822 822 822 823 824 825 826 826 828 829 829 829 829 829 829 829 830 830 830 830 830 829
795 797 799 801 803 805 808 810 811 813 814 815 816 817 817 817 817 818 818 819 820 820 820 821 822 822 823 824 826 826 826 827 827 827 828 828 828 828 828 828 828 828
793 795 797 799 801 804 806 807 809 810 811 813 814 814 814 815 815 815 816 816 817 818 819 819 820 821 821 822 823 823 824 825 825 826 826 826 826 826 827 827 827 827
791 793 795 798 800 802 803 805 806 807 809 810 811 812 812 812 813 814 814 814 815 816 817 817 818 818 819 820 821 821 822 823 823 824 824 824 824 825 825 826 826 826
789 791 793 795 797 798 800 801 802 803 805 807 808 809 810 810 811 811 812 813 813 814 815 815 816 816 817 818 819 819 820 821 821 822 822 822 823 823 824 824 824 825
787 788 790 792 793 795 796 797 799 800 801 803 805 806 807 808 809 809 810 811 812 812 813 813 814 815 815 816 817 817 818 818 819 819 820 820 821 821 822 822 823 823
785 786 787 789 789 791 793 794 796 797 799 800 802 804 805 806 806 807 808 809 810 811 811 812 813 814 814 815 816 816 817 816 817 817 817 818 819 819 820 821 821 822
783 784 784 785 786 788 790 792 793 794 796 798 799 801 803 803 804 805 806 807 808 809 810 811 812 813 813 814 814 815 815 815 815 815 816 817 818 819 820 820 820 821
779 781 782 783 784 786 787 789 791 792 794 796 797 799 800 801 802 804 805 806 807 808 809 810 811 811 812 813 813 814 814 814 814 814 814 816 817 819 820 820 821 821
776 777 779 780 781 783 785 786 788 790 792 794 795 797 798 799 801 802 804 805 807 808 809 809 810 811 811 812 812 813 814 814 814 814 814 815 817 819 820 821 821 821
773 774 776 777 779 781 782 784 786 788 789 791 793 795 796 798 800 802 803 805 807 808 809 810 810 810 810 811 812 812 813 813 813 814 814 815 816 817 818 820 820 820
770 771 772 774 777 779 780 782 783 784 786 788 791 793 795 797 800 802 804 806 807 807 809 810 811 811 810 810 811 812 812 812 812 813 813 814 815 815 816 818 819 820
770 773 774 774 774 776 778 779 781 783 785 787 789 792 794 797 799 801 804 806 807 808 809 810 811 812 812 811 810 811 811 812 812 811 812 813 815 815 816 817 819 820
766 773 777 778 778 777 776 777 780 783 785 787 788 790 793 796 799 801 803 806 807 809 810 811 811 813 814 813 810 809 810 812 813 812 812 813 814 815 817 818 819 819
764 768 773 777 781 782 778 778 783 786 786 786 788 791 793 796 799 801 803 806 808 809 811 812 812 812 814 815 812 810 810 813 814 814 814 815 817 817 817 820 822 821
Wind_Speed
23 22 21 21 22 22 21 21 21 20 20 19 18 17 17 16 15 14 14 13 13 12 12 12 12 12 12 11 10 10 9 9 9 7 8 8 8 8 9 9 9 9
24 23 21 21 22 22 22 21 20 20 20 19 18 17 16 16 15 15 14 13 13 13 12 12 12 12 12 12 12 11 11 11 11 10 10 10 9 10 10 9 9 9
26 25 22 21 22 22 22 21 19 19 19 18 18 17 17 16 16 15 14 14 14 14 13 13 13 13 13 13 13 13 13 13 13 11 11 12 11 11 10 10 10 11
29 27 24 22 21 22 22 21 20 19 19 19 19 18 18 17 16 17 16 16 15 15 15 16 16 15 14 14 14 15 15 15 14 12 11 12 11 10 10 10 11 10
31 30 27 23 22 22 22 22 21 20 19 20 20 19 19 17 17 18 17 17 17 16 16 17 17 17 16 15 15 15 15 15 14 12 11 11 11 11 11 11 12 10
31 32 30 26 23 22 23 23 22 21 21 20 20 19 19 18 17 17 17 17 17 17 17 17 17 17 16 16 16 16 15 14 13 12 12 12 11 11 11 11 11 10
31 32 31 29 25 23 24 24 23 22 22 21 20 19 19 18 18 18 17 17 16 16 16 16 17 17 16 16 16 17 17 15 14 13 13 13 11 11 11 11 11 10
31 31 32 30 28 25 25 25 24 23 23 22 21 20 18 18 17 17 16 15 15 16 16 17 18 19 18 17 17 18 18 18 17 16 15 14 13 13 13 12 12 12
32 31 31 31 30 28 27 26 26 25 24 23 23 21 19 18 18 18 18 18 19 19 19 19 20 21 20 19 18 18 18 17 18 19 17 16 16 15 14 13 12 12
32 32 31 31 30 30 29 28 27 26 25 24 24 22 20 20 21 21 20 19 20 20 20 20 21 21 20 19 19 19 19 17 17 20 19 17 17 15 14 12 11 10
33 32 31 31 31 30 30 28 27 26 25 24 24 23 22 22 23 22 21 20 21 21 21 21 21 20 20 20 20 19 20 18 17 19 18 17 17 15 13 11 10 9
32 32 31 31 31 30 29 28 27 27 26 26 24 23 24 24 24 24 23 22 21 21 20 21 21 20 20 20 19 19 19 19 18 18 17 16 15 15 14 12 10 9
32 32 32 31 30 30 29 28 28 27 27 26 25 24 25 25 25 24 23 21 21 20 20 21 21 21 20 19 19 19 19 18 18 17 16 15 14 14 13 12 10 9
33 32 31 30 29 29 29 28 29 29 29 27 25 24 25 25 25 24 23 22 21 20 19 20 20 20 20 20 19 19 18 18 18 17 16 14 13 13 12 11 10 9
33 32 31 30 29 28 29 29 29 30 29 29 28 26 25 25 25 25 24 22 20 19 19 20 20 20 20 20 19 18 18 18 18 17 16 14 12 11 10 9 8 8
33 32 31 30 30 30 30 30 30 30 30 29 29 28 26 25 25 25 25 24 22 20 19 20 21 21 20 20 20 19 18 18 18 18 17 15 14 12 10 8 8 8
32 32 31 32 32 32 32 32 31 31 30 29 29 29 28 27 26 26 25 24 22 20 20 21 21 21 20 20 20 19 19 20 19 19 19 18 16 14 12 11 10 10
32 32 32 33 33 33 33 32 32 32 31 30 29 28 28 27 26 26 25 23 22 21 20 20 21 21 20 20 19 19 20 20 20 20 21 21 20 17 14 14 14 13
32 33 33 34 34 34 33 32 32 31 30 29 27 26 26 26 25 26 25 23 22 21 21 20 20 20 20 19 19 19 19 20 21 22 21 20 18 16 15 16 16 13
34 34 34 34 34 34 34 33 32 31 30 28 26 24 24 24 24 24 22 21 20 20 20 19 19 20 20 20 20 19 19 20 20 20 19 17 14 12 14 15 14 11
34 34 34 34 34 34 34 32 31 29 26 23 20 20 20 19 18 17 16 15 15 16 17 17 16 17 18 18 19 19 18 18 18 17 17 15 12 11 11 10 9 8
35 35 34 33 33 33 32 28 25 21 18 17 16 16 16 15 13 11 10 10 11 12 12 12 12 13 14 15 16 16 16 16 16 14 12 13 14 13 12 11 9 7
31 33 35 34 32 30 26 22 20 19 18 18 16 14 14 13 12 10 9 9 10 10 9 7 5 7 11 13 12 13 14 15 15 14 13 13 14 14 13 12 10 7
17 17 22 28 29 26 23 20 20 20 19 18 17 16 15 15 14 14 13 11 10 10 8 6 3 1 6 11 12 12 12 13 15 16 16 15 15 15 14 13 12 10
17 12 12 13 14 18 22 23 22 20 18 17 18 18 19 18 17 17 16 14 13 12 8 6 5 3 0 5 10 11 11 11 13 16 18 18 19 19 17 15 15 15
20 18 16 13 13 17 22 23 21 19 19 20 21 21 22 20 18 17 18 17 15 12 8 6 6 7 6 3 4 8 9 10 12 13 15 18 18 18 19 17 15 16
Wind_Direction
215 216 219 223 225 228 230 230 231 232 233 234 234 238 241 243 245 247 251 256 258 257 254 251 249 246 248 256 263 266 270 274 278 281 277 274 284 298 305 307 308 311
216 217 221 227 229 232 233 232 231 232 233 235 237 242 245 245 246 247 252 257 261 261 255 252 253 251 252 257 261 265 267 268 269 274 276 276 282 292 298 301 305 309
218 219 224 229 230 232 232 228 228 232 235 237 238 241 244 246 247 249 253 257 262 262 256 254 255 253 254 257 261 262 261 264 268 275 280 278 278 283 287 294 303 307
220 222 226 229 229 230 228 225 227 231 234 236 238 239 242 246 248 250 253 257 261 262 260 260 260 258 257 259 262 264 265 267 267 271 280 278 274 277 283 289 296 301
223 223 225 227 227 225 224 225 227 230 233 237 239 240 241 244 248 249 251 253 257 261 263 265 263 259 256 258 261 264 268 269 265 266 275 275 274 279 284 287 288 293
224 224 224 226 227 224 225 227 229 231 234 238 241 243 243 243 247 250 250 252 255 260 265 266 262 255 254 259 263 264 266 267 262 264 270 273 274 277 280 281 280 285
223 224 224 225 228 227 228 230 232 234 236 238 242 245 245 246 252 256 255 254 254 258 262 260 252 247 248 254 260 262 263 264 262 260 265 268 269 270 273 274 275 279
222 223 223 225 227 229 231 232 234 236 236 237 241 245 246 249 255 256 252 248 248 250 251 247 243 243 244 243 247 250 253 259 263 259 259 262 262 265 270 272 273 275
219 222 223 224 226 228 231 233 236 237 237 237 240 243 244 247 250 248 245 244 244 245 245 244 245 248 249 247 245 246 246 252 262 262 259 260 261 267 274 272 270 272
217 220 221 223 224 227 230 233 236 238 238 238 239 242 243 243 244 245 247 248 248 248 246 244 246 248 251 251 248 247 246 246 257 263 260 259 261 268 273 271 268 269
216 217 220 222 223 226 229 232 235 238 239 238 239 241 242 242 243 247 250 251 253 256 253 248 249 251 254 256 253 249 249 250 256 260 257 256 261 265 267 265 263 263
215 216 218 221 223 225 229 231 234 237 240 240 241 244 244 242 245 250 253 253 255 260 260 255 254 252 253 257 257 256 255 254 255 255 248 247 254 259 260 257 254 256
215 217 218 220 223 225 228 231 233 236 239 242 244 246 244 241 242 247 251 254 256 257 258 256 254 253 253 254 255 258 257 253 251 250 246 243 248 254 253 251 249 249
216 218 218 220 223 226 229 232 234 235 237 240 243 245 242 239 240 245 249 253 254 252 250 251 251 253 253 252 253 256 252 246 245 247 245 243 245 248 246 241 241 245
217 217 218 221 223 225 228 232 235 236 236 237 240 241 240 239 242 247 250 250 249 246 244 246 248 250 250 251 253 251 243 237 240 243 242 239 239 238 236 236 243 249
216 217 218 220 223 225 227 231 235 236 236 235 236 238 241 243 244 245 245 245 244 241 240 242 246 249 250 249 249 245 237 233 237 240 237 234 233 229 229 238 242 232
215 216 218 220 222 224 227 230 233 235 235 234 234 236 241 244 244 240 238 237 237 237 239 242 246 249 248 247 246 242 236 234 237 236 232 229 229 227 228 227 217 202
215 216 217 219 221 224 226 229 233 235 235 234 234 237 241 244 240 234 230 230 232 235 239 241 245 247 246 244 245 241 236 234 234 233 233 231 229 229 224 210 198 192
215 216 218 219 221 223 226 230 232 233 233 234 236 238 240 237 230 225 224 227 231 234 236 236 238 240 240 241 241 237 233 233 233 234 236 235 233 230 217 201 193 190
215 217 219 221 221 222 225 228 230 232 233 236 236 232 227 221 217 216 218 221 223 225 226 227 229 231 234 236 235 233 232 233 234 234 235 236 235 224 207 197 190 186
214 216 219 220 220 221 223 225 227 228 227 225 218 209 204 200 201 204 204 204 209 213 216 219 223 228 230 232 232 233 233 234 236 238 237 233 224 206 189 177 166 165
214 215 216 217 216 216 216 214 211 206 199 192 186 182 182 181 183 185 184 186 194 201 206 212 220 228 231 232 234 236 236 237 237 234 221 204 194 185 172 159 151 145
213 213 212 211 209 207 200 189 180 174 173 175 173 164 161 167 171 166 166 177 180 178 184 193 210 231 232 231 233 234 234 232 226 212 192 176 171 164 156 150 142 125
212 219 214 204 199 193 180 166 160 160 165 170 169 159 154 158 159 150 147 154 151 141 145 154 145 225 237 229 225 222 221 217 208 196 183 169 152 138 129 126 120 111
200 208 216 206 188 169 154 146 142 144 153 161 160 155 149 147 148 140 130 124 119 114 117 131 126 95 284 223 209 203 196 188 182 179 171 155 139 127 118 112 110 109
192 191 195 192 175 152 138 136 140 142 146 147 143 141 138 135 135 130 120 110 108 112 114 113 108 94 72 76 169 174 164 152 142 138 133 123 116 111 104 96 95 102